TimeCST,TemperatureF,Dew PointF,Humidity,Sea Level PressureIn,VisibilityMPH,Wind Direction,Wind SpeedMPH,Gust SpeedMPH,PrecipitationIn,Events,Conditions,WindDirDegrees,DateUTC
12:52 AM,37.9,30.0,73,30.22,10.0,North,6.9,-,N/A,,Clear,360,2013-01-20 06:52:00
1:52 AM,37.9,27.0,65,30.23,10.0,North,5.8,-,N/A,,Clear,10,2013-01-20 07:52:00
2:52 AM,36.0,27.0,70,30.24,10.0,North,4.6,-,N/A,,Clear,10,2013-01-20 08:52:00
3:52 AM,35.1,27.0,72,30.25,10.0,North,8.1,-,N/A,,Clear,360,2013-01-20 09:52:00
4:52 AM,34.0,27.0,75,30.25,10.0,NNE,3.5,-,N/A,,Clear,30,2013-01-20 10:52:00
5:52 AM,30.9,26.1,82,30.25,10.0,NNE,9.2,-,N/A,,Clear,30,2013-01-20 11:52:00
6:52 AM,28.9,24.1,82,30.28,10.0,Calm,Calm,-,N/A,,Clear,0,2013-01-20 12:52:00
7:52 AM,32.0,25.0,75,30.28,10.0,ENE,4.6,-,N/A,,Clear,70,2013-01-20 13:52:00
8:52 AM,35.1,21.0,57,30.28,10.0,East,6.9,-,N/A,,Clear,80,2013-01-20 14:52:00
9:52 AM,39.0,18.0,43,30.28,10.0,East,6.9,-,N/A,,Clear,90,2013-01-20 15:52:00
10:52 AM,43.0,16.0,34,30.28,10.0,ENE,5.8,-,N/A,,Clear,60,2013-01-20 16:52:00
11:52 AM,46.0,12.9,26,30.25,10.0,NE,4.6,-,N/A,,Clear,50,2013-01-20 17:52:00
12:52 PM,50.0,10.9,21,30.21,10.0,NNE,4.6,-,N/A,,Clear,30,2013-01-20 18:52:00
1:52 PM,51.1,12.9,22,30.19,10.0,North,5.8,-,N/A,,Clear,10,2013-01-20 19:52:00
2:52 PM,52.0,14.0,22,30.19,10.0,NNE,4.6,-,N/A,,Clear,20,2013-01-20 20:52:00
3:52 PM,48.9,17.1,28,30.19,10.0,North,13.8,-,N/A,,Clear,350,2013-01-20 21:52:00
4:52 PM,46.0,17.1,31,30.19,10.0,North,11.5,-,N/A,,Clear,10,2013-01-20 22:52:00
5:52 PM,41.0,16.0,36,30.21,10.0,North,10.4,-,N/A,,Clear,10,2013-01-20 23:52:00
6:52 PM,37.0,15.1,41,30.22,10.0,NNE,9.2,-,N/A,,Clear,30,2013-01-21 00:52:00
7:52 PM,35.1,16.0,46,30.24,10.0,NNE,10.4,-,N/A,,Clear,20,2013-01-21 01:52:00
8:52 PM,33.1,18.0,54,30.26,10.0,North,12.7,-,N/A,,Clear,10,2013-01-21 02:52:00
9:52 PM,30.9,17.1,57,30.29,10.0,North,16.1,-,N/A,,Clear,10,2013-01-21 03:52:00
10:52 PM,28.0,15.1,58,30.31,10.0,North,11.5,-,N/A,,Clear,10,2013-01-21 04:52:00
11:52 PM,27.0,16.0,63,30.30,10.0,North,9.2,-,N/A,,Clear,10,2013-01-21 05:52:00